Location: Kolin
(50.0330°N, 15.2000°E)
Time: 09:04:42
(UTC+02:00)

Gurwin Techsat 1B - Pass Details

Date: 14 August 2022
Orbit: 811 x 814 km, 98.8° (Epoch: 25 September)

Event Time Altitude Azimuth Distance (km) Brightness Sun altitude
Rises 03:47:59 0° 15° (NNE) 3,352 13.0 -16.2°
Reaches altitude 10° 03:50:20 10° 16° (NNE) 2,415 12.1 -15.9°
Maximum altitude 03:55:42 86° 105° (ESE) 823 8.6 -15.4°
Enters shadow 03:59:43 18° 195° (SSW) 1,889 10.0 -14.9°
